GFSFLT2_250_spd_030.txt.gz
Wind_Speed
93 96 98 100 104 108 112 116 118 119 114 107 106 110 116 122 125 127 125 120 113 107 101 97 96 95 93
98 101 104 107 110 113 117 120 117 111 108 114 116 120 124 125 120 111 105 103 99 94 91 88 85 85 85
101 105 109 113 116 118 118 113 111 114 116 122 125 123 119 108 101 98 95 91 88 86 83 80 79 77 78
105 109 114 119 120 115 110 111 118 124 124 124 120 109 103 97 92 89 87 83 80 78 74 72 70 69 68
112 116 121 121 116 109 111 117 127 127 121 116 101 99 91 87 84 81 78 72 70 67 65 64 61 61 61
115 119 121 116 107 112 119 123 130 125 101 101 88 90 83 79 73 70 69 62 60 58 57 55 55 55 55
118 118 108 108 113 120 124 125 119 107 90 86 86 82 71 68 60 62 60 55 54 53 51 51 52 52 53
117 109 111 117 121 121 120 110 105 97 80 77 78 73 63 56 51 56 55 53 52 51 49 48 48 48 51
112 114 119 121 120 113 102 95 88 87 72 68 69 63 59 50 47 48 50 48 47 45 46 47 45 44 48
119 120 120 118 106 97 86 81 77 75 64 63 60 55 62 51 44 44 46 45 44 40 42 44 41 39 43
120 121 115 101 93 84 78 71 65 63 60 61 60 55 54 56 40 36 39 43 42 39 39 40 37 36 38
119 106 98 87 80 77 69 63 58 58 62 57 52 48 44 43 42 30 30 37 38 36 36 35 33 33 32
100 92 83 78 72 67 63 60 61 55 50 50 43 36 34 33 33 28 28 29 32 29 31 31 31 30 30
84 79 75 69 63 59 63 63 58 48 37 43 32 30 28 30 25 22 28 23 22 23 26 24 28 29 30
73 69 64 59 59 61 58 55 49 43 32 33 26 26 25 20 21 21 19 20 22 20 18 17 22 24 25
63 58 56 58 59 54 49 44 38 31 28 26 24 20 18 17 17 16 20 18 17 17 20 20 18 19 19
55 56 59 55 50 47 41 34 30 26 24 22 17 14 15 15 14 11 10 13 14 15 15 16 17 17 16

GFSFLT2_250_spd_033.txt.gz
Wind_Speed
90 94 97 99 100 101 103 105 108 110 111 113 115 116 119 122 117 107 108 112 117 119 119 119 118 117 117
88 91 94 97 98 100 103 107 109 112 114 115 120 123 123 112 110 113 117 120 121 120 114 105 102 101 99
86 90 92 96 97 100 103 108 112 115 117 121 125 119 110 113 117 119 119 117 109 103 98 92 89 86 85
85 87 91 96 97 100 106 113 117 121 124 122 111 113 117 118 117 113 103 99 97 91 85 84 82 78 77
86 91 95 99 104 110 113 118 124 122 109 114 115 117 119 112 102 95 91 89 88 84 78 74 72 70 69
92 96 101 106 111 116 118 115 107 115 109 116 114 114 106 97 92 82 80 80 79 73 65 63 62 62 62
98 104 108 113 115 112 106 105 110 114 109 105 103 100 94 88 83 73 66 66 67 62 54 56 56 54 55
111 112 111 107 103 104 107 108 109 108 99 93 93 89 87 85 72 59 53 58 61 57 52 53 52 49 51
109 105 104 105 107 107 105 102 101 98 91 84 83 75 72 73 61 51 56 59 60 57 51 52 48 46 48
108 109 110 109 106 103 98 93 89 87 82 76 71 62 62 68 57 52 56 54 56 54 49 47 45 44 45
114 114 112 106 99 93 87 80 78 75 67 62 66 64 58 57 55 44 49 48 50 47 44 42 39 39 39
110 105 100 94 88 83 78 73 66 58 60 62 60 53 47 48 46 38 41 42 41 40 40 36 33 32 37
96 92 87 82 76 73 68 61 61 57 52 51 51 45 40 39 34 34 33 33 35 34 33 31 28 33 35
84 79 74 71 66 60 60 60 58 53 41 44 42 36 31 30 29 29 28 27 29 28 27 25 27 31 31
70 69 66 61 58 57 54 51 48 45 38 33 32 27 26 27 24 20 21 21 21 23 23 22 26 28 28
62 58 56 56 55 49 46 42 37 31 30 25 24 22 21 19 18 17 17 15 16 19 21 21 24 25 26
52 51 53 49 46 42 37 31 27 24 22 20 18 16 14 13 10 11 15 16 15 17 18 18 19 21 22

GFSFLT2_250_spd_036.txt.gz
Wind_Speed
80 82 82 84 86 86 86 88 92 95 96 97 98 99 99 101 102 102 104 107 111 115 118 122 126 128 124
80 78 77 77 76 77 79 84 88 93 97 99 99 101 101 102 104 107 112 115 119 124 127 127 123 119 118
68 69 71 74 74 76 79 86 90 95 98 99 101 104 107 109 112 117 120 122 124 121 120 120 120 120 119
71 73 76 80 80 81 85 90 93 99 102 104 108 111 116 118 119 119 117 115 116 118 120 121 118 109 101
82 82 84 85 88 91 92 96 103 108 111 112 111 109 110 111 113 115 115 114 111 107 106 104 101 92 85
91 92 93 95 97 99 101 102 99 106 103 104 107 109 112 114 116 113 105 96 89 87 90 92 89 82 76
96 97 96 98 95 94 96 97 102 107 106 108 110 108 108 107 105 97 85 77 75 78 80 81 79 72 65
101 99 97 97 98 99 104 105 107 107 104 97 98 97 96 97 94 83 70 66 67 71 72 70 70 63 56
102 102 102 104 105 105 104 101 100 99 97 89 89 86 84 88 85 72 56 57 66 73 68 65 62 56 56
109 109 110 110 106 101 97 94 92 90 88 80 79 74 72 80 74 59 55 60 66 65 61 58 54 49 53
114 114 111 105 100 93 88 84 80 77 73 69 69 69 64 64 71 61 56 56 56 53 51 48 44 45 49
110 104 99 94 89 85 78 72 70 63 62 61 63 62 60 58 57 51 51 49 46 43 40 38 36 39 42
95 91 87 83 76 72 68 61 61 57 53 56 56 53 51 51 47 44 40 39 35 34 34 34 33 35 38
84 80 74 69 64 58 58 59 58 55 48 51 47 45 42 40 36 35 33 33 32 32 31 30 29 32 36
68 66 62 57 55 57 56 53 51 49 42 39 35 34 32 30 28 28 28 28 29 29 27 25 28 30 31
55 53 52 55 55 49 48 46 40 36 32 29 27 26 24 22 22 25 23 25 25 25 25 23 26 28 29
46 49 51 48 45 42 38 34 31 29 26 23 21 20 20 19 20 21 22 20 20 22 24 24 26 27 30

GFSFLT2_250_spd_039.txt.gz
Wind_Speed
77 80 81 85 88 83 80 79 79 81 81 81 81 80 80 81 82 83 86 91 95 98 100 101 101 101 102
82 86 88 88 78 75 75 77 79 83 85 86 85 85 86 87 87 88 91 95 98 99 100 101 104 105 107
86 86 79 79 78 79 80 83 86 88 91 90 88 90 91 92 93 96 99 102 104 106 107 111 113 116 118
81 79 81 85 86 85 87 91 92 96 98 95 94 95 97 97 98 101 104 107 109 110 112 115 118 120 120
84 91 91 93 93 94 94 94 96 96 97 97 94 96 98 99 103 106 108 109 110 109 110 112 115 118 120
96 99 100 101 99 98 96 95 96 104 102 103 101 104 105 108 110 109 108 106 103 102 102 103 105 106 105
102 104 103 101 98 100 103 102 105 109 106 105 106 104 104 105 104 102 98 90 85 85 86 90 92 93 91
106 103 103 105 107 108 110 109 111 111 102 93 94 94 95 97 95 91 82 73 70 72 75 79 81 80 78
107 109 110 113 114 111 110 106 102 99 96 83 87 85 85 89 87 80 69 63 61 64 69 69 67 64 63
113 117 117 116 111 105 99 94 92 90 88 78 80 77 74 81 79 70 61 58 59 62 63 62 60 58 57
119 121 120 112 103 96 91 85 80 76 74 69 73 70 65 65 72 65 60 58 54 52 52 52 50 48 49
119 108 100 95 90 85 79 74 70 63 64 63 61 62 61 61 59 55 55 52 48 44 43 41 40 39 40
95 90 85 80 75 72 69 63 59 56 58 55 56 54 53 51 48 47 44 43 39 37 35 35 35 35 34
80 74 71 67 61 58 57 57 57 53 54 50 49 47 44 42 40 39 36 35 33 32 30 29 30 30 29
65 62 58 55 52 54 54 53 52 49 45 44 41 38 36 35 34 31 29 30 28 28 26 27 26 25 25
53 51 49 51 51 51 49 46 43 40 38 36 33 30 29 29 30 27 25 25 26 26 25 24 25 25 24
47 46 48 50 48 45 41 39 36 34 31 28 26 24 23 23 24 26 27 27 27 27 27 27 26 27 27

GFSFLT2_250_spd_045.txt.gz
Wind_Speed
92 95 97 95 96 95 92 91 94 94 83 83 86 85 85 88 88 87 87 89 91 89 89 92 94 94 92
93 94 94 96 95 95 95 95 91 86 91 91 89 88 88 90 91 93 94 90 89 86 86 87 87 89 89
91 91 92 93 95 95 94 92 94 92 95 92 93 94 94 92 90 89 89 90 90 91 92 93 94 96 98
90 90 90 92 94 97 92 96 96 100 101 102 99 95 97 97 97 97 96 96 97 98 98 99 103 106 109
87 88 90 93 90 91 93 97 99 102 103 102 100 103 105 105 102 99 97 95 94 95 97 101 104 108 110
87 90 88 89 91 94 96 98 99 102 100 107 106 111 111 109 104 97 90 87 85 86 87 89 91 95 97
85 89 89 92 95 97 98 99 103 107 104 109 113 118 112 106 94 87 82 77 76 77 77 80 82 84 85
88 90 93 95 94 96 101 104 106 110 104 112 116 109 102 93 82 75 71 69 67 66 66 68 69 70 72
91 93 93 95 99 102 105 106 107 111 106 111 101 95 88 77 71 65 63 62 61 60 60 61 63 64 66
90 94 98 101 102 104 107 109 109 109 99 98 84 78 78 67 58 63 63 62 58 58 56 56 57 58 58
95 98 99 102 106 107 106 103 96 92 84 81 76 71 64 69 62 59 59 57 51 50 48 46 45 47 47
98 101 103 106 107 100 92 87 77 74 72 69 66 63 62 60 59 54 50 49 44 39 40 40 38 37 38
100 104 102 93 90 85 77 73 65 60 59 60 59 61 58 53 51 46 42 39 40 38 36 35 34 32 31
97 90 87 82 76 71 66 58 54 50 50 51 55 54 52 46 40 37 37 34 32 34 31 31 28 28 28
82 79 72 67 62 55 51 51 51 52 50 44 46 43 41 37 33 32 31 32 32 30 29 25 26 27 24
69 63 59 53 47 45 48 49 49 46 44 41 37 32 30 32 29 29 30 31 28 30 29 25 15 23 25
55 51 47 44 45 45 47 47 43 38 37 33 28 28 26 26 29 33 31 28 27 25 26 23 23 20 24

GFSFLT2_250_spd_048.txt.gz
Wind_Speed
98 97 97 99 95 94 97 97 98 99 96 94 88 81 78 82 85 83 84 82 82 82 83 84 85 85 86
96 96 97 100 100 99 99 99 98 98 92 87 85 86 90 88 87 86 85 86 87 86 83 83 88 90 90
93 92 94 98 100 100 98 96 92 90 88 86 89 92 92 92 90 89 89 87 87 88 91 95 98 100 101
97 97 97 99 97 93 91 91 87 89 90 91 92 95 94 93 90 90 89 91 92 95 99 102 104 106 108
100 96 93 89 88 88 88 90 92 94 95 97 97 95 94 93 94 94 94 96 100 103 104 104 103 102 103
83 84 79 78 79 84 87 91 94 98 95 98 96 99 99 102 99 97 98 99 98 96 95 93 90 87 87
73 73 75 79 81 86 90 92 96 96 93 99 103 104 104 105 101 97 93 89 86 83 80 77 76 77 78
75 78 80 83 86 90 93 95 97 97 96 101 103 104 104 99 91 84 80 77 76 74 71 66 66 67 67
76 79 83 87 89 92 95 97 100 99 98 101 102 99 97 89 79 71 68 66 67 67 61 61 63 62 61
83 86 89 92 94 94 96 97 95 98 97 104 98 88 88 77 67 59 56 59 63 62 61 61 59 56 55
90 90 91 92 93 94 95 95 96 98 91 89 89 78 71 69 63 51 55 57 60 58 55 53 51 50 47
89 90 92 94 96 96 96 94 86 82 78 72 72 66 61 61 61 55 54 53 52 49 49 47 46 45 44
93 93 94 94 93 88 80 78 75 65 60 61 62 60 57 58 58 52 50 45 46 43 40 40 42 42 40
90 87 79 72 72 73 72 66 59 52 49 54 57 56 55 52 49 47 45 43 38 40 41 36 37 40 39
73 70 68 66 65 62 58 53 49 49 48 49 49 49 45 43 41 41 40 38 40 38 38 34 29 33 38
66 64 62 59 53 47 45 45 45 46 47 48 43 39 38 35 38 37 35 36 34 31 33 35 28 28 29
59 56 52 47 43 37 39 41 44 44 42 42 38 35 31 27 31 36 38 32 32 30 30 28 29 26 27